GW2092 Weather Reports


time (UTC)temp
C
wind
direction
speed
KPH
gust
KPH
rain 1hr
cm
rain 24hr
cm
rain mn
cm
humidity
%
barometer
mb
20260906004549 32 0 0.0 0.0 0.00 0.00 0.00 50 1012.7
20260906003047 33 0 0.0 0.0 0.00 0.00 0.00 47 1012.7
20260906001554 35 0 0.0 0.0 0.00 0.00 0.00 44 1012.8
20260906000057 35 0 0.0 0.0 0.00 0.00 0.00 41 1012.8
20260905234606 36 0 0.0 1.6 0.00 0.00 0.00 39 1012.8
20260905233056 36 0 0.0 1.6 0.00 0.00 0.00 38 1012.8
20260905231556 36 0 0.0 1.6 0.00 0.00 0.00 38 1012.8
20260905230109 37 0 0.0 1.6 0.00 0.00 0.00 37 1012.7
20260905224544 38 219 0.0 1.6 0.00 0.00 0.00 36 1012.7
20260905223054 38 0 0.0 1.6 0.00 0.00 0.00 36 1012.7
20260905221554 37 0 0.0 0.0 0.00 0.00 0.00 37 1012.8
20260905220045 38 0 0.0 1.6 0.00 0.00 0.00 36 1013.0
20260905214554 38 219 0.0 4.8 0.00 0.00 0.00 36 1013.0
20260905213049 39 77 0.0 9.7 0.00 0.00 0.00 36 1013.2
20260905211551 40 345 0.0 4.8 0.00 0.00 0.00 34 1013.3
20260905210052 40 210 0.0 3.2 0.00 0.00 0.00 34 1013.5
20260905204551 39 0 0.0 6.4 0.00 0.00 0.00 35 1013.7
20260905203054 40 207 0.0 4.8 0.00 0.00 0.00 34 1013.9
20260905201545 40 0 0.0 4.8 0.00 0.00 0.00 35 1014.3
20260905200046 39 161 1.6 11.3 0.00 0.00 0.00 36 1014.5
20260905194552 41 0 0.0 3.2 0.00 0.00 0.00 35 1014.6
20260905193105 38 65 0.0 4.8 0.00 0.00 0.00 37 1014.9
20260905191545 38 0 0.0 6.4 0.00 0.00 0.00 37 1015.1
20260905190055 39 82 0.0 6.4 0.00 0.00 0.00 38 1015.2
20260905184551 40 208 0.0 3.2 0.00 0.00 0.00 36 1015.3
20260905183059 39 141 0.0 4.8 0.00 0.00 0.00 36 1015.5
20260905181554 39 0 0.0 6.4 0.00 0.00 0.00 38 1015.8
20260905180049 37 312 0.0 3.2 0.00 0.00 0.00 40 1016.2
20260905174548 37 0 0.0 1.6 0.00 0.00 0.00 41 1016.3
20260905173055 38 82 0.0 3.2 0.00 0.00 0.00 40 1016.4
20260905171554 38 0 0.0 1.6 0.00 0.00 0.00 39 1016.6
20260905170046 38 0 0.0 1.6 0.00 0.00 0.00 42 1016.8
20260905164554 38 0 0.0 1.6 0.00 0.00 0.00 43 1016.8
20260905163056 37 0 0.0 4.8 0.00 0.00 0.00 45 1016.9
20260905161546 37 0 0.0 3.2 0.00 0.00 0.00 44 1017.1
20260905160055 36 0 0.0 4.8 0.00 0.00 0.00 46 1017.1
20260905154604 36 42 0.0 3.2 0.00 0.00 0.00 46 1017.0
20260905153052 36 191 0.0 4.8 0.00 0.00 0.00 48 1017.0
20260905151549 35 0 0.0 3.2 0.00 0.00 0.00 51 1017.0
20260905150108 33 0 0.0 3.2 0.00 0.00 0.00 54 1016.7
20260905144554 32 174 0.0 3.2 0.00 0.00 0.00 56 1016.7
20260905143052 32 0 0.0 4.8 0.00 0.00 0.00 58 1016.8
20260905141556 30 0 0.0 4.8 0.00 0.00 0.00 61 1016.8
20260905140058 30 202 0.0 1.6 0.00 0.00 0.00 64 1016.6
20260905134553 28 0 0.0 1.6 0.00 0.00 0.00 70 1016.6
20260905133045 26 0 0.0 1.6 0.00 0.00 0.00 74 1016.5
20260905131554 25 0 0.0 1.6 0.00 0.00 0.00 76 1016.4
20260905130050 24 0 0.0 0.0 0.00 0.00 0.00 79 1016.0
20260905124547 23 0 0.0 0.0 0.00 0.00 0.00 83 1016.0
20260905123048 22 0 0.0 0.0 0.00 0.00 0.00 84 1015.8
20260905121557 22 0 0.0 0.0 0.00 0.00 0.00 85 1016.0
20260905120046 22 0 0.0 0.0 0.00 0.00 0.00 85 1016.0
20260905114546 22 0 0.0 0.0 0.00 0.00 0.00 85 1015.8
20260905113104 22 0 0.0 0.0 0.00 0.00 0.00 84 1015.7
20260905111551 22 0 0.0 0.0 0.00 0.00 0.00 84 1015.6
20260905110046 22 0 0.0 0.0 0.00 0.00 0.00 84 1015.6
20260905104545 22 0 0.0 0.0 0.00 0.00 0.00 83 1015.6
20260905103059 22 0 0.0 0.0 0.00 0.00 0.00 82 1015.4
20260905101552 22 0 0.0 0.0 0.00 0.00 0.00 83 1015.5
20260905094545 22 0 0.0 0.0 0.00 0.00 0.00 81 1015.4
20260905093054 22 0 0.0 0.0 0.00 0.00 0.00 81 1015.4
20260905091546 23 0 0.0 0.0 0.00 0.00 0.00 80 1015.3
20260905090054 23 0 0.0 0.0 0.00 0.00 0.00 79 1015.3
20260905084556 23 0 0.0 0.0 0.00 0.00 0.00 79 1015.1
20260905083047 23 0 0.0 0.0 0.00 0.00 0.00 78 1015.1
20260905081557 24 0 0.0 0.0 0.00 0.00 0.00 77 1015.0
20260905080054 24 0 0.0 0.0 0.00 0.00 0.00 75 1015.1
20260905074554 25 0 0.0 0.0 0.00 0.00 0.00 73 1015.0
20260905073059 25 0 0.0 0.0 0.00 0.00 0.00 74 1015.1
20260905071557 25 0 0.0 0.0 0.00 0.00 0.00 73 1015.2
20260905070055 25 0 0.0 0.0 0.00 0.00 0.00 72 1015.2
20260905064554 26 0 0.0 0.0 0.00 0.00 0.00 70 1015.4
20260905063048 26 0 0.0 0.0 0.00 0.00 0.00 70 1015.3
20260905061607 26 0 0.0 0.0 0.00 0.00 0.00 71 1015.3
20260905060100 25 0 0.0 0.0 0.00 0.00 0.00 71 1015.0
20260905054554 26 0 0.0 0.0 0.00 0.00 0.00 71 1015.1
20260905053047 26 0 0.0 0.0 0.00 0.00 0.00 70 1015.3
20260905051545 26 0 0.0 0.0 0.00 0.00 0.00 70 1015.4
20260905050044 26 0 0.0 0.0 0.00 0.00 0.00 69 1015.4
20260905044549 26 0 0.0 0.0 0.00 0.00 0.00 68 1015.6
20260905043056 27 0 0.0 0.0 0.00 0.00 0.00 66 1015.5
20260905041544 27 0 0.0 0.0 0.00 0.00 0.00 64 1015.5
20260905040054 28 0 0.0 0.0 0.00 0.00 0.00 63 1015.5
20260905034551 28 0 0.0 0.0 0.00 0.00 0.00 63 1015.4
20260905033050 28 0 0.0 0.0 0.00 0.00 0.00 62 1015.3
20260905031549 28 0 0.0 0.0 0.00 0.00 0.00 61 1015.1
20260905024547 28 0 0.0 0.0 0.00 0.00 0.00 61 1014.7
20260905023056 28 0 0.0 0.0 0.00 0.00 0.00 60 1014.3
20260905021555 28 0 0.0 0.0 0.00 0.00 0.00 61 1014.1
20260905020103 28 0 0.0 0.0 0.00 0.00 0.00 59 1013.9
20260905014546 28 0 0.0 0.0 0.00 0.00 0.00 58 1013.8
20260905013108 29 0 0.0 0.0 0.00 0.00 0.00 56 1013.6
20260905011628 30 0 0.0 0.0 0.00 0.00 0.00 54 1013.6
20260905010049 31 0 0.0 0.0 0.00 0.00 0.00 52 1013.6